Weather History for Fort Sill, OK

Change the Weather History Date:

Sunday, May 11, 2014

  Actual Average Record
Temperature  
Mean Temperature 78 °F -  
Max Temperature 89 °F 80 °F 102 °F (1967)
Min Temperature 68 °F 56 °F 40 °F (1952)
Cooling Degree Days 14    
Growing Degree Days 28 (Base 50)    
Moisture  
Dew Point 65 °F    
Average Humidity 66    
Maximum Humidity 92    
Minimum Humidity 41    
Precipitation  
Precipitation 0.00 in - - ()
Sea Level Pressure  
Sea Level Pressure 29.65 in    
Wind  
Wind Speed 18 mph (SSE)    
Max Wind Speed 31 mph    
Max Gust Speed 40 mph    
Visibility 10 miles    
Events      
Averages and records for this station are not official NWS values.
T = Trace of Precipitation, MM = Missing Value Source: NWS Daily Summary

Daily Weather History Graph

Daily Weather History Graph

Search for Another Location

Airport:

Trip Planner

Search our weather history database for the weather conditions in past years. The results will help you decide how hot, cold, wet, or windy it might be!

Date:

Astronomy

May. 11, 2014 Rise Set
Actual Time 6:33 AM CDT 8:26 PM CDT
Civil Twilight 6:06 AM CDT 8:54 PM CDT
Nautical Twilight 5:32 AM CDT 9:27 PM CDT
Astronomical Twilight 4:57 AM CDT 10:03 PM CDT
Moon 5:31 PM CDT (5/11) 4:31 AM CDT (5/11)
Length of Visible Light 14h 47m
Length of Day
13h 52m
Waxing Gibbous, 89% of the Moon is Illuminated
May 11
Waxing Gibbous
May 14
Full
May 21
Last Quarter
May 28
New
Jun 5
First Quarter

Hourly Weather History & Observations

Time (CDT) Temp. Heat Index Dew Point Humidity Pressure Visibility Wind Dir Wind Speed Gust Speed Precip Events Conditions
12:58 AM 74.7 °F - 66.4 °F 75% 29.66 in 10.0 mi SSE 16.1 mph 24.2 mph N/A   Clear
1:58 AM 74.1 °F - 65.8 °F 75% 29.66 in 10.0 mi SSE 16.1 mph - N/A   Clear
2:58 AM 72.7 °F - 65.3 °F 78% 29.66 in 10.0 mi SSE 13.8 mph - N/A   Clear
3:58 AM 71.1 °F - 65.3 °F 82% 29.66 in 10.0 mi SSE 11.5 mph - N/A   Clear
4:58 AM 70.3 °F - 65.7 °F 85% 29.67 in 10.0 mi SSE 11.5 mph - N/A   Clear
5:58 AM 69.3 °F - 65.8 °F 89% 29.68 in 10.0 mi SSE 11.5 mph - N/A   Clear
6:58 AM 68.0 °F - 65.7 °F 92% 29.70 in 10.0 mi South 11.5 mph - N/A   Clear
7:58 AM 70.3 °F - 64.9 °F 83% 29.72 in 10.0 mi South 18.4 mph 26.5 mph N/A   Clear
8:23 AM 71.6 °F - 64.4 °F 78% 29.74 in 10.0 mi South 19.6 mph 29.9 mph N/A   Mostly Cloudy
8:53 AM 71.6 °F - 64.4 °F 78% 29.75 in 10.0 mi South 20.7 mph 32.2 mph N/A   Scattered Clouds
8:58 AM 72.1 °F - 64.9 °F 78% 29.73 in 10.0 mi South 23.0 mph 29.9 mph N/A   Scattered Clouds
9:58 AM 75.9 °F - 64.0 °F 67% 29.72 in 10.0 mi South 24.2 mph 28.8 mph N/A   Partly Cloudy
10:58 AM 79.5 °F - 63.3 °F 58% 29.71 in 10.0 mi South 23.0 mph 31.1 mph N/A   Clear
11:58 AM 82.0 °F 83.4 °F 63.9 °F 54% 29.70 in 10.0 mi South 24.2 mph 31.1 mph N/A   Partly Cloudy
12:58 PM 84.9 °F 85.9 °F 63.5 °F 48% 29.67 in 10.0 mi South 23.0 mph 33.4 mph N/A   Clear
2:58 PM 88.0 °F 88.4 °F 62.4 °F 42% 29.62 in 10.0 mi South 21.9 mph 38.0 mph N/A   Clear
3:58 PM 89.2 °F 90.2 °F 63.5 °F 42% 29.57 in 10.0 mi South 31.1 mph 36.8 mph N/A   Clear
4:58 PM 89.2 °F 89.9 °F 62.6 °F 41% 29.56 in 10.0 mi South 27.6 mph 36.8 mph N/A   Clear
5:58 PM 88.5 °F 89.8 °F 64.2 °F 44% 29.55 in 10.0 mi SSE 24.2 mph 35.7 mph N/A   Clear
6:58 PM 85.3 °F 87.4 °F 65.7 °F 52% 29.55 in 10.0 mi SSE 25.3 mph 40.3 mph N/A   Clear
7:58 PM 82.9 °F 84.6 °F 64.9 °F 54% 29.55 in 10.0 mi SSE 20.7 mph 31.1 mph N/A   Clear
8:58 PM 80.8 °F 82.6 °F 65.5 °F 59% 29.57 in 10.0 mi SSE 23.0 mph 31.1 mph N/A   Clear
9:58 PM 79.3 °F - 65.7 °F 63% 29.60 in 10.0 mi SSE 18.4 mph 27.6 mph N/A   Clear
10:58 PM 78.3 °F - 67.1 °F 68% 29.61 in 10.0 mi SSE 21.9 mph 31.1 mph N/A   Clear
11:58 PM 77.4 °F - 66.9 °F 70% 29.60 in 10.0 mi SSE 23.0 mph 29.9 mph N/A   Clear